Home > Weather > San Andrés > Past weeks

Flag for Colombia Past Weather in San Andrés, Colombia — Yesterday and Last 2 Weeks

Now
82 °F

Overcast.


Feels Like: 91 °F
Forecast: 82 / 86 °F
Wind: 9 mph from Northeast

Location: San Andres Isla / Sesquicentenario

Current Time: Jul 30, 2016 at 2:29:33 AM

Latest Report: Jul 30, 2016 at 2:00 AM


Visibility: N/A

Pressure: 29.86 "Hg

Humidity: 84%

Dew Point: 77 °F

Location of San AndrésLocation

Past Weather in San Andrés — Graph

°F

San Andrés Temperature Yesterday

Maximum temperature yesterday: 88 °F (at 2:00 PM)
Minimum temperature yesterday: 81 °F (at 3:00 AM)
Average temperature yesterday: 84 °F

High & Low Weather Summary for the Past Weeks

 TemperatureHumidityPressure
High88 °F (Jul 15, 1:00 PM)94% (Jul 18, 7:00 AM)29.98 "Hg (Jul 18, 7:00 AM)
Low77 °F (Jul 18, 8:00 PM)70% (Jul 15, 1:00 PM)29.80 "Hg (Jul 26, 5:00 PM)
Average84 °F82%29.89 "Hg
* Reported Jul 15 1:00 AM — Jul 30 1:00 AM, San Andrés, Weather by CustomWeather, © 2016

Note: Actual official high and low records may vary slightly from our data, if they occured in-between our weather recording intervals... More about our weather records

Advertising

San Andrés Weather History for the Previous 24 Hours

Scroll right to see more
 ConditionsComfort  
Time TempWeatherWind HumidityBarometerVisibility
1:00 AM
Sat, Jul 30
82 °FOvercast.14 mph84%29.88 "HgN/A
12:00 AM84 °FOvercast.15 mph79%29.90 "HgN/A
11:00 PM
Fri, Jul 29
84 °FOvercast.17 mph79%29.91 "HgN/A
10:00 PM84 °FMostly cloudy.9 mph79%29.91 "HgN/A
9:00 PM84 °FOvercast.12 mph79%29.89 "HgN/A
8:00 PM84 °FOvercast.10 mph79%29.88 "HgN/A
7:00 PM84 °FOvercast.13 mph79%29.86 "HgN/A
6:00 PM84 °FOvercast.No wind79%29.84 "HgN/A
5:00 PM86 °FOvercast.13 mph75%29.83 "HgN/A
4:00 PM86 °FOvercast.16 mph75%29.83 "HgN/A
3:00 PM86 °FOvercast.18 mph79%29.83 "HgN/A
2:00 PM88 °FPartly sunny.15 mph75%29.85 "HgN/A
1:00 PM86 °FThunderstorms. Scattered clouds.8 mph79%29.86 "HgN/A
12:00 PM86 °FOvercast.15 mph79%29.87 "HgN/A
11:00 AM86 °FScattered clouds.14 mph84%29.88 "HgN/A
10:00 AM86 °FPartly sunny.18 mph79%29.88 "HgN/A
9:00 AM84 °FPartly sunny.15 mph84%29.87 "HgN/A
8:00 AM84 °FPartly sunny.14 mph84%29.85 "HgN/A
7:00 AM82 °FBroken clouds.14 mph89%29.84 "HgN/A
6:00 AM82 °FPassing clouds.14 mph84%29.84 "HgN/A
5:00 AM82 °FPassing clouds.13 mph84%29.83 "HgN/A
4:00 AM82 °FPassing clouds.8 mph84%29.82 "HgN/A
3:00 AM81 °FPassing clouds.9 mph89%29.83 "HgN/A
2:00 AM82 °FPassing clouds.12 mph84%29.85 "HgN/A
Weather by CustomWeather, © 2016

See weather overviewHow to use our weather pages